Time,TemperatureF,DewpointF,PressureIn,WindDirection,WindDirectionDegrees,WindSpeedMPH,WindSpeedGustMPH,Humidity,HourlyPrecipIn,Conditions,Clouds,dailyrainin,SoftwareType,DateUTC
2013-08-20 00:01:00,71.7,70.5,30.12,SE,141,0.0,0.0,96,0.00,,---,0.52,VWS V14.01,2013-08-20 04:01:00,
2013-08-20 00:02:00,71.7,70.5,30.12,SE,141,0.0,0.0,96,0.00,,---,0.00,VWS V14.01,2013-08-20 04:02:00,
2013-08-20 00:07:00,71.8,70.6,30.12,SE,141,0.0,0.0,96,0.00,,---,0.00,VWS V14.01,2013-08-20 04:07:00,
2013-08-20 00:12:00,71.9,70.7,30.12,SE,141,0.0,0.0,96,0.00,,---,0.00,VWS V14.01,2013-08-20 04:12:00,
2013-08-20 00:17:00,71.9,70.7,30.12,SE,141,0.0,0.0,96,0.00,,---,0.00,VWS V14.01,2013-08-20 04:17:00,
2013-08-20 00:22:00,71.9,70.7,30.12,SE,141,0.0,0.0,96,0.00,,---,0.00,VWS V14.01,2013-08-20 04:22:00,
2013-08-20 00:27:00,71.9,70.7,30.12,SE,141,0.0,0.0,96,0.00,,---,0.00,VWS V14.01,2013-08-20 04:27:00,
2013-08-20 00:32:00,71.8,70.6,30.12,SE,141,0.0,0.0,96,0.00,,---,0.00,VWS V14.01,2013-08-20 04:32:00,
2013-08-20 00:37:00,71.8,70.6,30.12,SE,141,0.0,0.0,96,0.00,,---,0.00,VWS V14.01,2013-08-20 04:37:00,
2013-08-20 00:42:00,71.7,70.5,30.11,SE,141,0.0,0.0,96,0.00,,---,0.00,VWS V14.01,2013-08-20 04:42:00,
2013-08-20 00:47:00,71.7,70.5,30.12,SE,141,0.0,0.0,96,0.00,,---,0.00,VWS V14.01,2013-08-20 04:47:00,
2013-08-20 00:52:00,71.6,70.4,30.12,SE,141,0.0,0.0,96,0.00,,---,0.00,VWS V14.01,2013-08-20 04:52:00,
2013-08-20 00:57:00,71.5,70.3,30.12,SE,141,0.0,0.0,96,0.00,,---,0.00,VWS V14.01,2013-08-20 04:57:00,
2013-08-20 01:02:00,71.5,70.3,30.12,SE,141,0.0,0.0,96,0.00,,---,0.00,VWS V14.01,2013-08-20 05:02:00,
2013-08-20 01:07:00,71.5,70.3,30.12,SE,141,0.0,0.0,96,0.00,,---,0.00,VWS V14.01,2013-08-20 05:07:00,
2013-08-20 01:12:00,71.5,70.3,30.12,SE,141,0.0,0.0,96,0.00,,---,0.00,VWS V14.01,2013-08-20 05:12:00,
2013-08-20 01:17:00,71.4,70.2,30.12,SE,141,0.0,0.0,96,0.00,,---,0.00,VWS V14.01,2013-08-20 05:17:00,
2013-08-20 01:22:00,71.4,70.2,30.12,SE,141,0.0,0.0,96,0.00,,---,0.00,VWS V14.01,2013-08-20 05:22:00,
2013-08-20 01:27:00,71.4,70.2,30.12,SE,141,0.0,0.0,96,0.00,,---,0.00,VWS V14.01,2013-08-20 05:27:00,
2013-08-20 01:32:00,71.5,70.3,30.11,SE,141,0.0,0.0,96,0.00,,---,0.00,VWS V14.01,2013-08-20 05:32:00,
2013-08-20 01:37:00,71.5,70.3,30.12,SE,141,0.0,0.0,96,0.00,,---,0.00,VWS V14.01,2013-08-20 05:37:00,
2013-08-20 01:42:00,71.5,70.3,30.11,SE,141,0.0,0.0,96,0.00,,---,0.00,VWS V14.01,2013-08-20 05:42:00,
2013-08-20 01:47:00,71.5,70.3,30.11,SE,141,0.0,0.0,96,0.00,,---,0.00,VWS V14.01,2013-08-20 05:47:00,
2013-08-20 01:52:00,71.5,70.3,30.11,SE,141,0.0,0.0,96,0.00,,---,0.00,VWS V14.01,2013-08-20 05:52:00,
2013-08-20 01:57:00,71.6,70.4,30.11,SE,141,0.0,0.0,96,0.00,,---,0.00,VWS V14.01,2013-08-20 05:57:00,
2013-08-20 02:02:00,71.5,70.3,30.11,SE,141,0.0,0.0,96,0.00,,---,0.00,VWS V14.01,2013-08-20 06:02:00,
2013-08-20 02:07:00,71.7,70.5,30.11,SE,141,0.0,0.0,96,0.00,,---,0.00,VWS V14.01,2013-08-20 06:07:00,
2013-08-20 02:12:00,71.7,70.5,30.11,SE,141,0.0,0.0,96,0.00,,---,0.00,VWS V14.01,2013-08-20 06:12:00,
2013-08-20 02:17:00,71.7,70.5,30.11,SE,141,0.0,0.0,96,0.00,,---,0.00,VWS V14.01,2013-08-20 06:17:00,
2013-08-20 02:22:00,71.7,70.5,30.11,SE,141,0.0,0.0,96,0.00,,---,0.00,VWS V14.01,2013-08-20 06:22:00,
2013-08-20 02:27:00,71.7,70.5,30.11,SE,141,0.0,0.0,96,0.00,,---,0.00,VWS V14.01,2013-08-20 06:27:00,
2013-08-20 02:32:00,71.7,70.5,30.11,SE,141,0.0,0.0,96,0.00,,---,0.00,VWS V14.01,2013-08-20 06:32:00,
2013-08-20 02:37:00,71.7,70.5,30.11,SE,141,0.0,0.0,96,0.00,,---,0.00,VWS V14.01,2013-08-20 06:37:00,
2013-08-20 02:42:00,71.7,70.5,30.11,SE,141,0.0,0.0,96,0.00,,---,0.00,VWS V14.01,2013-08-20 06:42:00,
2013-08-20 02:47:00,71.7,70.5,30.11,SE,141,0.0,0.0,96,0.00,,---,0.00,VWS V14.01,2013-08-20 06:47:00,
2013-08-20 02:52:00,71.7,70.5,30.11,SSE,149,0.0,0.0,96,0.00,,---,0.00,VWS V14.01,2013-08-20 06:52:00,
2013-08-20 02:57:00,71.7,70.5,30.11,SSE,149,0.0,0.0,96,0.00,,---,0.00,VWS V14.01,2013-08-20 06:57:00,
2013-08-20 03:02:00,71.7,70.5,30.11,SSE,149,0.0,0.0,96,0.00,,---,0.00,VWS V14.01,2013-08-20 07:02:00,
2013-08-20 03:07:00,71.7,70.5,30.11,SSE,149,0.0,0.0,96,0.00,,---,0.00,VWS V14.01,2013-08-20 07:07:00,
2013-08-20 03:12:00,71.6,70.4,30.11,SSE,149,0.0,0.0,96,0.00,,---,0.00,VWS V14.01,2013-08-20 07:12:00,
2013-08-20 03:17:00,71.5,70.3,30.11,SSE,149,0.0,0.0,96,0.00,,---,0.00,VWS V14.01,2013-08-20 07:17:00,
2013-08-20 03:22:00,71.4,69.9,30.11,SSE,149,0.0,0.0,95,0.00,,---,0.00,VWS V14.01,2013-08-20 07:22:00,
2013-08-20 03:27:00,71.3,69.8,30.11,SSE,149,0.0,0.0,95,0.00,,---,0.00,VWS V14.01,2013-08-20 07:27:00,
2013-08-20 03:32:00,71.2,70.0,30.11,SSE,149,0.0,0.0,96,0.00,,---,0.00,VWS V14.01,2013-08-20 07:32:00,
2013-08-20 03:37:00,71.0,69.8,30.11,SSE,149,0.0,0.0,96,0.00,,---,0.00,VWS V14.01,2013-08-20 07:37:00,
2013-08-20 03:42:00,70.9,69.7,30.11,SSE,149,0.0,0.0,96,0.00,,---,0.00,VWS V14.01,2013-08-20 07:42:00,
2013-08-20 03:47:00,70.8,69.3,30.10,SSE,149,0.0,0.0,95,0.00,,---,0.00,VWS V14.01,2013-08-20 07:47:00,
2013-08-20 03:52:00,70.7,69.2,30.10,SSE,149,0.0,0.0,95,0.00,,---,0.00,VWS V14.01,2013-08-20 07:52:00,
2013-08-20 03:57:00,70.6,69.1,30.10,SSE,149,0.0,0.0,95,0.00,,---,0.00,VWS V14.01,2013-08-20 07:57:00,
2013-08-20 04:02:00,70.5,69.3,30.10,SSE,149,0.0,0.0,96,0.00,,---,0.00,VWS V14.01,2013-08-20 08:02:00,
2013-08-20 04:07:00,70.5,69.3,30.10,SSE,149,0.0,0.0,96,0.00,,---,0.00,VWS V14.01,2013-08-20 08:07:00,
2013-08-20 04:12:00,70.5,69.3,30.10,SSE,149,0.0,0.0,96,0.00,,---,0.00,VWS V14.01,2013-08-20 08:12:00,
2013-08-20 04:17:00,70.6,69.4,30.10,SSE,149,0.0,0.0,96,0.00,,---,0.00,VWS V14.01,2013-08-20 08:17:00,
2013-08-20 04:22:00,70.7,69.5,30.10,SSE,149,0.0,0.0,96,0.00,,---,0.00,VWS V14.01,2013-08-20 08:22:00,
2013-08-20 04:27:00,70.6,69.4,30.10,SSE,149,0.0,0.0,96,0.00,,---,0.00,VWS V14.01,2013-08-20 08:27:00,
2013-08-20 04:32:00,70.6,69.4,30.10,SSE,149,0.0,0.0,96,0.00,,---,0.00,VWS V14.01,2013-08-20 08:32:00,
2013-08-20 04:37:00,70.5,69.3,30.10,SSE,149,0.0,0.0,96,0.00,,---,0.00,VWS V14.01,2013-08-20 08:37:00,
2013-08-20 04:42:00,70.5,69.3,30.10,SSE,149,0.0,0.0,96,0.00,,---,0.00,VWS V14.01,2013-08-20 08:42:00,
2013-08-20 04:47:00,70.4,69.2,30.10,SSE,149,0.0,0.0,96,0.00,,---,0.00,VWS V14.01,2013-08-20 08:47:00,
2013-08-20 04:52:00,70.3,69.1,30.10,SSE,149,0.0,0.0,96,0.00,,---,0.00,VWS V14.01,2013-08-20 08:52:00,
2013-08-20 04:57:00,70.2,69.0,30.10,SSE,149,0.0,0.0,96,0.00,,---,0.00,VWS V14.01,2013-08-20 08:57:00,
2013-08-20 05:02:00,70.1,68.9,30.10,SSE,149,0.0,0.0,96,0.00,,---,0.00,VWS V14.01,2013-08-20 09:02:00,
2013-08-20 05:07:00,70.0,68.8,30.10,SSE,149,0.0,0.0,96,0.00,,---,0.00,VWS V14.01,2013-08-20 09:07:00,
2013-08-20 05:12:00,69.9,68.7,30.10,SSE,149,0.0,0.0,96,0.00,,---,0.00,VWS V14.01,2013-08-20 09:12:00,
2013-08-20 05:17:00,69.8,68.6,30.10,SSE,149,0.0,0.0,96,0.00,,---,0.00,VWS V14.01,2013-08-20 09:17:00,
2013-08-20 05:22:00,69.7,68.5,30.10,SSE,149,0.0,0.0,96,0.00,,---,0.00,VWS V14.01,2013-08-20 09:22:00,
2013-08-20 05:27:00,69.7,68.5,30.10,SSE,149,0.0,0.0,96,0.00,,---,0.00,VWS V14.01,2013-08-20 09:27:00,
2013-08-20 05:32:00,69.6,68.4,30.10,SSE,149,0.0,0.0,96,0.00,,---,0.00,VWS V14.01,2013-08-20 09:32:00,
2013-08-20 05:37:00,69.6,68.4,30.10,SSE,149,0.0,0.0,96,0.00,,---,0.00,VWS V14.01,2013-08-20 09:37:00,
2013-08-20 05:42:00,69.5,68.3,30.10,SSE,149,0.0,0.0,96,0.00,,---,0.00,VWS V14.01,2013-08-20 09:42:00,
2013-08-20 05:47:00,69.5,68.3,30.10,SSE,149,0.0,0.0,96,0.00,,---,0.00,VWS V14.01,2013-08-20 09:47:00,
2013-08-20 05:52:00,69.5,68.3,30.10,SSE,149,0.0,0.0,96,0.00,,---,0.00,VWS V14.01,2013-08-20 09:52:00,
2013-08-20 05:57:00,69.6,68.4,30.11,SSE,149,0.0,0.0,96,0.00,,---,0.00,VWS V14.01,2013-08-20 09:57:00,
2013-08-20 06:02:00,69.6,68.4,30.11,SSE,149,0.0,0.0,96,0.00,,---,0.00,VWS V14.01,2013-08-20 10:02:00,
2013-08-20 06:07:00,69.6,68.4,30.11,SSE,149,0.0,0.0,96,0.00,,---,0.00,VWS V14.01,2013-08-20 10:07:00,
2013-08-20 06:12:00,69.6,68.4,30.11,SSE,149,0.0,0.0,96,0.00,,---,0.00,VWS V14.01,2013-08-20 10:12:00,
2013-08-20 06:17:00,69.6,68.4,30.11,SSE,149,0.0,0.0,96,0.00,,---,0.00,VWS V14.01,2013-08-20 10:17:00,
2013-08-20 06:22:00,69.6,68.4,30.11,SSE,149,0.0,0.0,96,0.00,,---,0.00,VWS V14.01,2013-08-20 10:22:00,
2013-08-20 06:27:00,69.5,68.3,30.11,SSE,149,0.0,0.0,96,0.00,,---,0.00,VWS V14.01,2013-08-20 10:27:00,
2013-08-20 06:32:00,69.4,68.2,30.11,SSE,149,0.0,0.0,96,0.00,,---,0.00,VWS V14.01,2013-08-20 10:32:00,
2013-08-20 06:37:00,69.3,68.1,30.11,SSE,149,0.0,0.0,96,0.00,,---,0.00,VWS V14.01,2013-08-20 10:37:00,
2013-08-20 06:42:00,69.3,68.1,30.11,SSE,149,0.0,0.0,96,0.00,,---,0.00,VWS V14.01,2013-08-20 10:42:00,
2013-08-20 06:47:00,69.2,68.0,30.12,SSE,149,0.0,0.0,96,0.00,,---,0.00,VWS V14.01,2013-08-20 10:47:00,
2013-08-20 06:52:00,69.1,67.9,30.12,SSE,149,0.0,0.0,96,0.00,,---,0.00,VWS V14.01,2013-08-20 10:52:00,
2013-08-20 06:57:00,69.0,67.8,30.12,SSE,149,0.0,0.0,96,0.00,,---,0.00,VWS V14.01,2013-08-20 10:57:00,
2013-08-20 07:02:00,69.0,67.8,30.12,SSE,149,0.0,0.0,96,0.00,,---,0.00,VWS V14.01,2013-08-20 11:02:00,
2013-08-20 07:07:00,69.0,67.8,30.13,SSE,149,0.0,0.0,96,0.00,,---,0.00,VWS V14.01,2013-08-20 11:07:00,
2013-08-20 07:12:00,68.9,67.7,30.13,SSE,149,0.0,0.0,96,0.00,,---,0.00,VWS V14.01,2013-08-20 11:12:00,
2013-08-20 07:17:00,68.9,67.7,30.13,SSE,149,0.0,0.0,96,0.00,,---,0.00,VWS V14.01,2013-08-20 11:17:00,
2013-08-20 07:22:00,68.9,67.7,30.13,SSE,149,0.0,0.0,96,0.00,,---,0.00,VWS V14.01,2013-08-20 11:22:00,
2013-08-20 07:27:00,69.0,67.8,30.13,SSE,149,0.0,0.0,96,0.00,,---,0.00,VWS V14.01,2013-08-20 11:27:00,
2013-08-20 07:32:00,68.9,67.7,30.13,SSE,149,0.0,0.0,96,0.00,,---,0.00,VWS V14.01,2013-08-20 11:32:00,
2013-08-20 07:37:00,68.9,67.7,30.13,SSE,149,0.0,0.0,96,0.00,,---,0.00,VWS V14.01,2013-08-20 11:37:00,
2013-08-20 07:42:00,68.8,67.6,30.13,SSE,149,0.0,0.0,96,0.00,,---,0.00,VWS V14.01,2013-08-20 11:42:00,
2013-08-20 07:47:00,68.8,67.6,30.14,SSE,149,0.0,0.0,96,0.00,,---,0.00,VWS V14.01,2013-08-20 11:47:00,
2013-08-20 07:52:00,68.9,67.7,30.13,SSE,149,0.0,0.0,96,0.00,,---,0.00,VWS V14.01,2013-08-20 11:52:00,
2013-08-20 07:57:00,69.0,67.8,30.14,SSE,149,0.0,0.0,96,0.00,,---,0.00,VWS V14.01,2013-08-20 11:57:00,
2013-08-20 08:02:00,69.0,68.1,30.14,SSE,149,0.0,0.0,97,0.00,,---,0.00,VWS V14.01,2013-08-20 12:02:00,
2013-08-20 08:07:00,69.1,68.2,30.14,SSE,149,0.0,0.0,97,0.00,,---,0.00,VWS V14.01,2013-08-20 12:07:00,
2013-08-20 08:12:00,69.3,68.4,30.14,SSE,149,0.0,0.0,97,0.00,,---,0.00,VWS V14.01,2013-08-20 12:12:00,
2013-08-20 08:17:00,69.5,68.6,30.14,SSE,149,0.0,0.0,97,0.00,,---,0.00,VWS V14.01,2013-08-20 12:17:00,
2013-08-20 08:22:00,69.7,68.8,30.15,SSE,149,0.0,0.0,97,0.00,,---,0.00,VWS V14.01,2013-08-20 12:22:00,
2013-08-20 08:27:00,69.9,69.0,30.15,SSE,149,0.0,0.0,97,0.00,,---,0.00,VWS V14.01,2013-08-20 12:27:00,
2013-08-20 08:32:00,70.1,69.2,30.15,SSE,149,0.0,0.0,97,0.00,,---,0.00,VWS V14.01,2013-08-20 12:32:00,
2013-08-20 08:37:00,70.3,69.4,30.15,SSE,149,0.0,0.0,97,0.00,,---,0.00,VWS V14.01,2013-08-20 12:37:00,
2013-08-20 08:42:00,70.4,69.5,30.15,SSE,149,0.0,0.0,97,0.00,,---,0.00,VWS V14.01,2013-08-20 12:42:00,
2013-08-20 08:47:00,70.6,69.4,30.15,SSE,149,0.0,0.0,96,0.00,,---,0.00,VWS V14.01,2013-08-20 12:47:00,
2013-08-20 08:52:00,70.8,69.6,30.15,SSE,149,0.0,0.0,96,0.00,,---,0.00,VWS V14.01,2013-08-20 12:52:00,
2013-08-20 08:57:00,71.0,69.8,30.15,SSE,149,0.0,0.0,96,0.00,,---,0.00,VWS V14.01,2013-08-20 12:57:00,
2013-08-20 09:02:00,71.2,70.0,30.15,SSE,149,0.0,0.0,96,0.00,,---,0.00,VWS V14.01,2013-08-20 13:02:00,
2013-08-20 09:07:00,71.5,70.0,30.15,SSE,149,0.0,0.0,95,0.00,,---,0.00,VWS V14.01,2013-08-20 13:07:00,
2013-08-20 09:12:00,71.9,70.4,30.15,SSE,149,0.0,0.0,95,0.00,,---,0.00,VWS V14.01,2013-08-20 13:12:00,
2013-08-20 09:17:00,72.4,70.6,30.16,SSE,149,0.0,0.0,94,0.00,,---,0.00,VWS V14.01,2013-08-20 13:17:00,
2013-08-20 09:22:00,72.6,70.5,30.16,SSE,149,0.0,0.0,93,0.00,,---,0.00,VWS V14.01,2013-08-20 13:22:00,
2013-08-20 09:27:00,72.7,70.6,30.16,SSE,149,0.0,0.0,93,0.00,,---,0.00,VWS V14.01,2013-08-20 13:27:00,
2013-08-20 09:32:00,72.9,70.8,30.16,SSE,149,0.0,0.0,93,0.00,,---,0.00,VWS V14.01,2013-08-20 13:32:00,
2013-08-20 09:37:00,73.0,70.9,30.16,SSE,149,0.0,0.0,93,0.00,,---,0.00,VWS V14.01,2013-08-20 13:37:00,
2013-08-20 09:42:00,73.2,71.1,30.16,SSE,149,0.0,0.0,93,0.00,,---,0.00,VWS V14.01,2013-08-20 13:42:00,
2013-08-20 09:47:00,73.3,70.8,30.16,SSE,149,0.0,0.0,92,0.00,,---,0.00,VWS V14.01,2013-08-20 13:47:00,
2013-08-20 09:52:00,73.5,71.0,30.16,SSE,149,0.0,0.0,92,0.00,,---,0.00,VWS V14.01,2013-08-20 13:52:00,
2013-08-20 09:57:00,73.7,71.2,30.16,SSE,149,0.0,0.0,92,0.00,,---,0.00,VWS V14.01,2013-08-20 13:57:00,
2013-08-20 10:02:00,74.0,71.2,30.16,SSE,149,0.0,0.0,91,0.00,,---,0.00,VWS V14.01,2013-08-20 14:02:00,
2013-08-20 10:07:00,74.5,71.4,30.16,SSE,149,0.0,0.0,90,0.00,,---,0.00,VWS V14.01,2013-08-20 14:07:00,
2013-08-20 10:12:00,75.1,71.6,30.16,SSE,149,0.0,0.0,89,0.00,,---,0.00,VWS V14.01,2013-08-20 14:12:00,
2013-08-20 10:17:00,75.7,71.6,30.17,SSE,149,0.0,0.0,87,0.00,,---,0.00,VWS V14.01,2013-08-20 14:17:00,
2013-08-20 10:22:00,76.4,71.2,30.17,SSE,149,0.0,0.0,84,0.00,,---,0.00,VWS V14.01,2013-08-20 14:22:00,
2013-08-20 10:27:00,77.1,71.2,30.17,SSE,149,0.0,0.0,82,0.00,,---,0.00,VWS V14.01,2013-08-20 14:27:00,
2013-08-20 10:32:00,77.5,71.6,30.17,SSE,149,0.0,0.0,82,0.00,,---,0.00,VWS V14.01,2013-08-20 14:32:00,
2013-08-20 10:37:00,78.1,72.2,30.17,SSE,149,0.0,0.0,82,0.00,,---,0.00,VWS V14.01,2013-08-20 14:37:00,
2013-08-20 10:42:00,78.5,71.8,30.17,SSE,149,0.0,0.0,80,0.00,,---,0.00,VWS V14.01,2013-08-20 14:42:00,
2013-08-20 10:47:00,78.9,71.8,30.17,SSE,149,0.0,0.0,79,0.00,,---,0.00,VWS V14.01,2013-08-20 14:47:00,
2013-08-20 10:52:00,78.8,72.1,30.17,SSE,164,0.0,0.0,80,0.00,,---,0.00,VWS V14.01,2013-08-20 14:52:00,
2013-08-20 10:57:00,78.1,71.4,30.17,SSE,167,0.0,0.0,80,0.00,,---,0.00,VWS V14.01,2013-08-20 14:57:00,
2013-08-20 11:02:00,78.0,72.1,30.17,South,174,0.0,0.0,82,0.00,,---,0.00,VWS V14.01,2013-08-20 15:02:00,
2013-08-20 11:07:00,77.8,71.5,30.17,South,174,0.0,0.0,81,0.00,,---,0.00,VWS V14.01,2013-08-20 15:07:00,
2013-08-20 11:12:00,77.9,71.6,30.17,South,174,0.0,0.0,81,0.00,,---,0.00,VWS V14.01,2013-08-20 15:12:00,
2013-08-20 11:17:00,77.8,71.5,30.18,South,174,0.0,0.0,81,0.00,,---,0.00,VWS V14.01,2013-08-20 15:17:00,
2013-08-20 11:22:00,77.9,71.2,30.18,South,174,0.0,0.0,80,0.00,,---,0.00,VWS V14.01,2013-08-20 15:22:00,
2013-08-20 11:27:00,78.0,71.3,30.18,South,174,0.0,0.0,80,0.00,,---,0.00,VWS V14.01,2013-08-20 15:27:00,
2013-08-20 11:32:00,78.2,71.2,30.18,South,174,0.0,0.0,79,0.00,,---,0.00,VWS V14.01,2013-08-20 15:32:00,
2013-08-20 11:37:00,78.3,71.3,30.18,South,174,0.0,0.0,79,0.00,,---,0.00,VWS V14.01,2013-08-20 15:37:00,
2013-08-20 11:42:00,78.4,71.7,30.18,South,173,0.0,0.0,80,0.00,,---,0.00,VWS V14.01,2013-08-20 15:42:00,
2013-08-20 11:47:00,78.4,71.7,30.18,South,173,0.0,0.0,80,0.00,,---,0.00,VWS V14.01,2013-08-20 15:47:00,
2013-08-20 11:52:00,78.6,71.9,30.18,South,173,0.0,0.0,80,0.00,,---,0.00,VWS V14.01,2013-08-20 15:52:00,
2013-08-20 11:57:00,78.7,72.0,30.18,South,173,0.0,0.0,80,0.00,,---,0.00,VWS V14.01,2013-08-20 15:57:00,
2013-08-20 12:02:00,78.7,72.0,30.18,South,173,0.0,0.0,80,0.00,,---,0.00,VWS V14.01,2013-08-20 16:02:00,
2013-08-20 12:07:00,78.7,72.0,30.18,South,173,0.0,0.0,80,0.00,,---,0.00,VWS V14.01,2013-08-20 16:07:00,
2013-08-20 12:12:00,78.6,71.6,30.18,South,173,0.0,0.0,79,0.00,,---,0.00,VWS V14.01,2013-08-20 16:12:00,
2013-08-20 12:17:00,78.4,71.7,30.18,South,173,0.0,0.0,80,0.00,,---,0.00,VWS V14.01,2013-08-20 16:17:00,
2013-08-20 12:22:00,78.5,71.8,30.18,South,173,0.0,0.0,80,0.00,,---,0.00,VWS V14.01,2013-08-20 16:22:00,
2013-08-20 12:27:00,78.7,72.4,30.18,SSE,160,0.0,0.0,81,0.00,,---,0.00,VWS V14.01,2013-08-20 16:27:00,
2013-08-20 12:32:00,78.6,71.9,30.18,SSE,150,0.0,0.0,80,0.00,,---,0.00,VWS V14.01,2013-08-20 16:32:00,
2013-08-20 12:37:00,78.6,71.9,30.18,SSE,150,0.0,0.0,80,0.00,,---,0.00,VWS V14.01,2013-08-20 16:37:00,
2013-08-20 12:42:00,78.7,71.6,30.18,SSW,204,0.0,0.0,79,0.00,,---,0.00,VWS V14.01,2013-08-20 16:42:00,
2013-08-20 12:47:00,78.8,71.7,30.18,SSW,204,0.0,0.0,79,0.00,,---,0.00,VWS V14.01,2013-08-20 16:47:00,
2013-08-20 12:52:00,78.8,71.7,30.18,South,183,0.0,0.0,79,0.00,,---,0.00,VWS V14.01,2013-08-20 16:52:00,
2013-08-20 12:57:00,78.8,72.1,30.18,SSE,159,0.0,0.0,80,0.00,,---,0.00,VWS V14.01,2013-08-20 16:57:00,
2013-08-20 13:02:00,78.8,71.7,30.17,South,190,0.0,0.0,79,0.00,,---,0.00,VWS V14.01,2013-08-20 17:02:00,
2013-08-20 13:07:00,79.0,72.7,30.17,SE,140,0.0,0.0,81,0.00,,---,0.00,VWS V14.01,2013-08-20 17:07:00,
2013-08-20 13:12:00,79.1,72.4,30.17,SE,146,0.0,0.0,80,0.00,,---,0.00,VWS V14.01,2013-08-20 17:12:00,
2013-08-20 13:17:00,79.2,72.5,30.17,SE,146,0.0,0.0,80,0.00,,---,0.00,VWS V14.01,2013-08-20 17:17:00,
2013-08-20 13:22:00,79.8,73.1,30.17,SSW,198,0.0,0.0,80,0.00,,---,0.00,VWS V14.01,2013-08-20 17:22:00,
2013-08-20 13:27:00,80.3,72.8,30.17,SSW,207,0.0,0.0,78,0.00,,---,0.00,VWS V14.01,2013-08-20 17:27:00,
2013-08-20 13:32:00,80.4,72.9,30.17,SSW,209,0.0,0.0,78,0.00,,---,0.00,VWS V14.01,2013-08-20 17:32:00,
2013-08-20 13:37:00,80.3,72.4,30.16,SSW,202,0.0,0.0,77,0.00,,---,0.00,VWS V14.01,2013-08-20 17:37:00,
2013-08-20 13:42:00,80.5,72.6,30.16,South,186,0.0,0.0,77,0.00,,---,0.00,VWS V14.01,2013-08-20 17:42:00,
2013-08-20 13:47:00,80.9,74.2,30.16,South,188,0.0,0.0,80,0.00,,---,0.00,VWS V14.01,2013-08-20 17:47:00,
2013-08-20 13:52:00,81.3,73.4,30.15,SSW,194,0.0,0.0,77,0.00,,---,0.00,VWS V14.01,2013-08-20 17:52:00,
2013-08-20 13:57:00,81.7,73.8,30.15,SSW,209,0.0,0.0,77,0.00,,---,0.00,VWS V14.01,2013-08-20 17:57:00,
2013-08-20 14:02:00,81.7,72.6,30.15,SW,227,0.0,0.0,74,0.00,,---,0.00,VWS V14.01,2013-08-20 18:02:00,
2013-08-20 14:07:00,81.8,73.1,30.15,SSW,194,0.0,1.0,75,0.00,,---,0.00,VWS V14.01,2013-08-20 18:07:00,
2013-08-20 14:12:00,82.0,72.9,30.14,SSW,199,0.0,0.0,74,0.00,,---,0.00,VWS V14.01,2013-08-20 18:12:00,
2013-08-20 14:17:00,82.1,72.6,30.14,South,171,0.0,0.0,73,0.00,,---,0.00,VWS V14.01,2013-08-20 18:17:00,
2013-08-20 14:22:00,81.8,73.1,30.14,SSW,192,0.0,0.0,75,0.00,,---,0.00,VWS V14.01,2013-08-20 18:22:00,
2013-08-20 14:27:00,81.5,72.4,30.14,South,184,0.0,1.0,74,0.00,,---,0.00,VWS V14.01,2013-08-20 18:27:00,
2013-08-20 14:32:00,81.4,72.3,30.14,SSW,204,0.0,0.0,74,0.00,,---,0.00,VWS V14.01,2013-08-20 18:32:00,
2013-08-20 14:37:00,81.6,73.3,30.14,South,186,1.0,1.0,76,0.00,,---,0.00,VWS V14.01,2013-08-20 18:37:00,
2013-08-20 14:42:00,82.0,72.9,30.14,SSW,196,0.0,0.0,74,0.00,,---,0.00,VWS V14.01,2013-08-20 18:42:00,
2013-08-20 14:47:00,82.3,73.6,30.14,SSW,210,0.0,0.0,75,0.00,,---,0.00,VWS V14.01,2013-08-20 18:47:00,
2013-08-20 14:52:00,82.4,73.3,30.13,SW,228,0.0,0.0,74,0.00,,---,0.00,VWS V14.01,2013-08-20 18:52:00,
2013-08-20 14:56:00,82.2,73.1,30.13,SW,228,0.0,0.0,74,0.00,,---,0.00,VWS V14.01,2013-08-20 18:56:00,
2013-08-20 15:01:00,82.5,74.6,30.13,SW,228,0.0,0.0,77,0.00,,---,0.00,VWS V14.01,2013-08-20 19:01:00,
2013-08-20 15:06:00,83.0,74.3,30.12,SW,224,0.0,0.0,75,0.00,,---,0.00,VWS V14.01,2013-08-20 19:06:00,
2013-08-20 15:11:00,82.9,72.5,30.12,WSW,244,0.0,0.0,71,0.00,,---,0.00,VWS V14.01,2013-08-20 19:11:00,
2013-08-20 15:16:00,82.5,72.2,30.12,SW,232,0.0,0.0,71,0.00,,---,0.00,VWS V14.01,2013-08-20 19:16:00,
2013-08-20 15:21:00,82.4,72.1,30.12,SW,221,0.0,0.0,71,0.00,,---,0.00,VWS V14.01,2013-08-20 19:21:00,
2013-08-20 15:26:00,82.6,73.1,30.12,SW,221,0.0,0.0,73,0.00,,---,0.00,VWS V14.01,2013-08-20 19:26:00,
2013-08-20 15:31:00,82.7,72.3,30.12,SSW,194,0.0,0.0,71,0.00,,---,0.00,VWS V14.01,2013-08-20 19:31:00,
2013-08-20 15:36:00,82.6,73.5,30.11,SSW,211,0.0,0.0,74,0.00,,---,0.00,VWS V14.01,2013-08-20 19:36:00,
2013-08-20 15:41:00,82.5,73.0,30.11,SSW,211,0.0,0.0,73,0.00,,---,0.00,VWS V14.01,2013-08-20 19:41:00,
2013-08-20 15:46:00,82.4,73.3,30.11,SSW,211,0.0,0.0,74,0.00,,---,0.00,VWS V14.01,2013-08-20 19:46:00,
2013-08-20 15:51:00,82.4,74.1,30.10,SSW,211,0.0,0.0,76,0.00,,---,0.00,VWS V14.01,2013-08-20 19:51:00,
2013-08-20 15:56:00,82.5,73.0,30.10,SSW,211,0.0,0.0,73,0.00,,---,0.00,VWS V14.01,2013-08-20 19:56:00,
2013-08-20 16:01:00,82.7,73.2,30.10,SSW,211,0.0,0.0,73,0.00,,---,0.00,VWS V14.01,2013-08-20 20:01:00,
2013-08-20 16:06:00,82.9,73.8,30.10,SSW,211,0.0,0.0,74,0.00,,---,0.00,VWS V14.01,2013-08-20 20:06:00,
2013-08-20 16:11:00,83.0,73.1,30.10,SSW,211,0.0,0.0,72,0.00,,---,0.00,VWS V14.01,2013-08-20 20:11:00,
2013-08-20 16:16:00,82.8,72.9,30.10,SSW,211,0.0,0.0,72,0.00,,---,0.00,VWS V14.01,2013-08-20 20:16:00,
2013-08-20 16:21:00,82.8,73.3,30.09,SSW,208,0.0,0.0,73,0.00,,---,0.00,VWS V14.01,2013-08-20 20:21:00,
2013-08-20 16:26:00,82.8,74.9,30.10,SSW,208,0.0,0.0,77,0.00,,---,0.00,VWS V14.01,2013-08-20 20:26:00,
2013-08-20 16:31:00,82.7,74.8,30.10,SSW,208,0.0,0.0,77,0.00,,---,0.00,VWS V14.01,2013-08-20 20:31:00,
2013-08-20 16:36:00,82.6,75.1,30.10,SSW,208,0.0,0.0,78,0.00,,---,0.00,VWS V14.01,2013-08-20 20:36:00,
2013-08-20 16:41:00,82.3,74.8,30.10,SW,217,0.0,0.0,78,0.00,,---,0.00,VWS V14.01,2013-08-20 20:41:00,
2013-08-20 16:46:00,82.2,74.7,30.10,SW,217,0.0,0.0,78,0.00,,---,0.00,VWS V14.01,2013-08-20 20:46:00,
2013-08-20 16:51:00,82.2,74.3,30.10,South,170,0.0,1.0,77,0.00,,---,0.00,VWS V14.01,2013-08-20 20:51:00,
2013-08-20 16:56:00,82.3,74.4,30.10,South,169,0.0,1.0,77,0.00,,---,0.00,VWS V14.01,2013-08-20 20:56:00,
2013-08-20 17:01:00,82.4,74.5,30.10,South,169,0.0,0.0,77,0.00,,---,0.00,VWS V14.01,2013-08-20 21:01:00,
2013-08-20 17:06:00,82.4,74.5,30.10,South,178,0.0,0.0,77,0.00,,---,0.00,VWS V14.01,2013-08-20 21:06:00,
2013-08-20 17:11:00,82.4,74.1,30.10,South,178,0.0,0.0,76,0.00,,---,0.00,VWS V14.01,2013-08-20 21:11:00,
2013-08-20 17:16:00,82.3,74.8,30.10,South,178,0.0,0.0,78,0.00,,---,0.00,VWS V14.01,2013-08-20 21:16:00,
2013-08-20 17:21:00,82.3,74.8,30.10,South,178,0.0,0.0,78,0.00,,---,0.00,VWS V14.01,2013-08-20 21:21:00,
2013-08-20 17:26:00,82.3,74.8,30.10,South,185,0.0,0.0,78,0.00,,---,0.00,VWS V14.01,2013-08-20 21:26:00,
2013-08-20 17:31:00,82.1,74.9,30.10,South,185,0.0,0.0,79,0.00,,---,0.00,VWS V14.01,2013-08-20 21:31:00,
2013-08-20 17:36:00,82.1,74.6,30.10,SSE,164,0.0,0.0,78,0.00,,---,0.00,VWS V14.01,2013-08-20 21:36:00,
2013-08-20 17:41:00,82.1,74.6,30.10,SSE,164,0.0,0.0,78,0.00,,---,0.00,VWS V14.01,2013-08-20 21:41:00,
2013-08-20 17:46:00,82.1,74.2,30.10,SSE,164,0.0,0.0,77,0.00,,---,0.00,VWS V14.01,2013-08-20 21:46:00,
2013-08-20 17:51:00,82.2,74.7,30.10,SSE,164,0.0,0.0,78,0.00,,---,0.00,VWS V14.01,2013-08-20 21:51:00,
2013-08-20 17:56:00,82.3,74.4,30.10,SSE,161,0.0,0.0,77,0.00,,---,0.00,VWS V14.01,2013-08-20 21:56:00,
2013-08-20 18:01:00,82.2,74.3,30.09,SSE,161,0.0,0.0,77,0.00,,---,0.00,VWS V14.01,2013-08-20 22:01:00,
2013-08-20 18:06:00,82.2,73.9,30.09,SE,140,0.0,0.0,76,0.00,,---,0.00,VWS V14.01,2013-08-20 22:06:00,
2013-08-20 18:11:00,82.1,74.6,30.10,SSW,206,0.0,0.0,78,0.00,,---,0.00,VWS V14.01,2013-08-20 22:11:00,
2013-08-20 18:16:00,82.1,74.9,30.10,SSW,207,0.0,0.0,79,0.00,,---,0.00,VWS V14.01,2013-08-20 22:16:00,
2013-08-20 18:21:00,82.1,75.3,30.10,SSW,206,0.0,0.0,80,0.00,,---,0.00,VWS V14.01,2013-08-20 22:21:00,
2013-08-20 18:26:00,82.0,75.6,30.10,SSW,206,0.0,0.0,81,0.00,,---,0.00,VWS V14.01,2013-08-20 22:26:00,
2013-08-20 18:31:00,81.8,75.4,30.10,SSW,207,0.0,0.0,81,0.00,,---,0.00,VWS V14.01,2013-08-20 22:31:00,
2013-08-20 18:36:00,81.6,74.8,30.10,SSW,207,0.0,0.0,80,0.00,,---,0.00,VWS V14.01,2013-08-20 22:36:00,
2013-08-20 18:41:00,81.4,75.7,30.10,SSW,207,0.0,0.0,83,0.00,,---,0.00,VWS V14.01,2013-08-20 22:41:00,
2013-08-20 18:46:00,81.1,75.1,30.10,SSW,207,0.0,0.0,82,0.00,,---,0.00,VWS V14.01,2013-08-20 22:46:00,
2013-08-20 18:51:00,80.8,75.2,30.10,SSW,206,0.0,0.0,83,0.00,,---,0.00,VWS V14.01,2013-08-20 22:51:00,
2013-08-20 18:56:00,80.6,75.0,30.10,SSW,207,0.0,0.0,83,0.00,,---,0.00,VWS V14.01,2013-08-20 22:56:00,
2013-08-20 19:01:00,80.5,74.9,30.10,SSW,207,0.0,0.0,83,0.00,,---,0.00,VWS V14.01,2013-08-20 23:01:00,
2013-08-20 19:06:00,80.5,74.9,30.10,SSW,206,0.0,0.0,83,0.00,,---,0.00,VWS V14.01,2013-08-20 23:06:00,
2013-08-20 19:11:00,80.6,75.3,30.10,SSW,207,0.0,0.0,84,0.00,,---,0.00,VWS V14.01,2013-08-20 23:11:00,
2013-08-20 19:16:00,80.5,74.5,30.10,SSW,207,0.0,0.0,82,0.00,,---,0.00,VWS V14.01,2013-08-20 23:16:00,
2013-08-20 19:21:00,80.5,74.5,30.10,SSW,206,0.0,0.0,82,0.00,,---,0.00,VWS V14.01,2013-08-20 23:21:00,
2013-08-20 19:26:00,80.5,74.9,30.10,SSW,207,0.0,0.0,83,0.00,,---,0.00,VWS V14.01,2013-08-20 23:26:00,
2013-08-20 19:31:00,80.5,74.9,30.10,SSW,206,0.0,0.0,83,0.00,,---,0.00,VWS V14.01,2013-08-20 23:31:00,
2013-08-20 19:36:00,80.5,74.9,30.11,SSW,207,0.0,0.0,83,0.00,,---,0.00,VWS V14.01,2013-08-20 23:36:00,
2013-08-20 19:41:00,80.4,75.8,30.11,SSW,207,0.0,0.0,86,0.00,,---,0.00,VWS V14.01,2013-08-20 23:41:00,
2013-08-20 19:46:00,80.2,76.3,30.11,SSW,206,0.0,0.0,88,0.00,,---,0.00,VWS V14.01,2013-08-20 23:46:00,
2013-08-20 19:51:00,80.0,75.8,30.11,SSW,207,0.0,0.0,87,0.00,,---,0.00,VWS V14.01,2013-08-20 23:51:00,
2013-08-20 19:56:00,79.8,75.6,30.12,SSW,206,0.0,0.0,87,0.00,,---,0.00,VWS V14.01,2013-08-20 23:56:00,
2013-08-20 20:01:00,79.5,75.3,30.11,SSW,207,0.0,0.0,87,0.00,,---,0.00,VWS V14.01,2013-08-21 00:01:00,
2013-08-20 20:06:00,79.3,74.8,30.11,SSW,207,0.0,0.0,86,0.00,,---,0.00,VWS V14.01,2013-08-21 00:06:00,
2013-08-20 20:11:00,79.1,74.6,30.12,SSW,206,0.0,0.0,86,0.00,,---,0.00,VWS V14.01,2013-08-21 00:11:00,
2013-08-20 20:16:00,79.1,73.8,30.12,SSW,206,0.0,0.0,84,0.00,,---,0.00,VWS V14.01,2013-08-21 00:16:00,
2013-08-20 20:21:00,79.1,73.8,30.12,SSW,194,0.0,0.0,84,0.00,,---,0.00,VWS V14.01,2013-08-21 00:21:00,
2013-08-20 20:26:00,79.1,73.8,30.12,SSW,194,0.0,0.0,84,0.00,,---,0.00,VWS V14.01,2013-08-21 00:26:00,
2013-08-20 20:31:00,79.0,74.8,30.12,SSW,194,0.0,0.0,87,0.00,,---,0.00,VWS V14.01,2013-08-21 00:31:00,
2013-08-20 20:36:00,78.7,74.5,30.12,SSW,194,0.0,0.0,87,0.00,,---,0.00,VWS V14.01,2013-08-21 00:36:00,
2013-08-20 20:41:00,78.3,74.5,30.12,SSW,194,0.0,0.0,88,0.00,,---,0.00,VWS V14.01,2013-08-21 00:41:00,
2013-08-20 20:46:00,77.8,74.3,30.12,SSW,194,0.0,0.0,89,0.00,,---,0.00,VWS V14.01,2013-08-21 00:46:00,
2013-08-20 20:51:00,77.3,73.8,30.12,SSW,194,0.0,0.0,89,0.00,,---,0.00,VWS V14.01,2013-08-21 00:51:00,
2013-08-20 20:56:00,76.9,73.8,30.12,SSW,194,0.0,0.0,90,0.00,,---,0.00,VWS V14.01,2013-08-21 00:56:00,
2013-08-20 21:01:00,76.6,73.8,30.12,SSW,194,0.0,0.0,91,0.00,,---,0.00,VWS V14.01,2013-08-21 01:01:00,
2013-08-20 21:06:00,76.2,73.4,30.12,SSW,194,0.0,0.0,91,0.00,,---,0.00,VWS V14.01,2013-08-21 01:06:00,
2013-08-20 21:11:00,75.9,73.4,30.12,SSW,194,0.0,0.0,92,0.00,,---,0.00,VWS V14.01,2013-08-21 01:11:00,
2013-08-20 21:16:00,75.7,73.2,30.12,SSW,194,0.0,0.0,92,0.00,,---,0.00,VWS V14.01,2013-08-21 01:16:00,
2013-08-20 21:19:00,75.5,73.0,30.12,SSW,194,0.0,0.0,92,0.00,,---,0.00,VWS V14.01,2013-08-21 01:19:00,
2013-08-20 21:24:00,75.3,72.8,30.12,SSW,194,0.0,0.0,92,0.00,,---,0.00,VWS V14.01,2013-08-21 01:24:00,
2013-08-20 21:29:00,75.1,72.9,30.13,SSW,194,0.0,0.0,93,0.00,,---,0.00,VWS V14.01,2013-08-21 01:29:00,
2013-08-20 21:34:00,75.0,72.8,30.13,SSW,194,0.0,0.0,93,0.00,,---,0.00,VWS V14.01,2013-08-21 01:34:00,
2013-08-20 21:39:00,74.8,72.6,30.13,SSW,194,0.0,0.0,93,0.00,,---,0.00,VWS V14.01,2013-08-21 01:39:00,
2013-08-20 21:44:00,74.6,72.4,30.13,SSW,194,0.0,0.0,93,0.00,,---,0.00,VWS V14.01,2013-08-21 01:44:00,
2013-08-20 21:49:00,74.5,72.3,30.14,SSW,194,0.0,0.0,93,0.00,,---,0.00,VWS V14.01,2013-08-21 01:49:00,
2013-08-20 21:54:00,74.3,72.2,30.13,SSW,194,0.0,0.0,93,0.00,,---,0.00,VWS V14.01,2013-08-21 01:54:00,
2013-08-20 21:59:00,74.2,72.4,30.14,SSW,194,0.0,0.0,94,0.00,,---,0.00,VWS V14.01,2013-08-21 01:59:00,
2013-08-20 22:04:00,74.2,72.4,30.14,SSW,194,0.0,0.0,94,0.00,,---,0.00,VWS V14.01,2013-08-21 02:04:00,
2013-08-20 22:09:00,74.1,72.3,30.14,SSW,194,0.0,0.0,94,0.00,,---,0.00,VWS V14.01,2013-08-21 02:09:00,
2013-08-20 22:14:00,74.0,72.2,30.15,SSW,194,0.0,0.0,94,0.00,,---,0.00,VWS V14.01,2013-08-21 02:14:00,
2013-08-20 22:19:00,73.9,72.1,30.15,SSW,194,0.0,0.0,94,0.00,,---,0.00,VWS V14.01,2013-08-21 02:19:00,
2013-08-20 22:24:00,73.9,72.1,30.15,SSW,194,0.0,0.0,94,0.00,,---,0.00,VWS V14.01,2013-08-21 02:24:00,
2013-08-20 22:29:00,73.7,71.9,30.15,SSW,194,0.0,0.0,94,0.00,,---,0.00,VWS V14.01,2013-08-21 02:29:00,
2013-08-20 22:34:00,73.6,71.8,30.15,SSW,194,0.0,0.0,94,0.00,,---,0.00,VWS V14.01,2013-08-21 02:34:00,
2013-08-20 22:39:00,73.5,71.7,30.15,SSW,194,0.0,0.0,94,0.00,,---,0.00,VWS V14.01,2013-08-21 02:39:00,
2013-08-20 22:44:00,73.4,71.6,30.15,SSW,194,0.0,0.0,94,0.00,,---,0.00,VWS V14.01,2013-08-21 02:44:00,
2013-08-20 22:49:00,73.3,71.5,30.16,SSW,194,0.0,0.0,94,0.00,,---,0.00,VWS V14.01,2013-08-21 02:49:00,
2013-08-20 22:54:00,73.3,71.5,30.16,SSW,194,0.0,0.0,94,0.00,,---,0.00,VWS V14.01,2013-08-21 02:54:00,
2013-08-20 22:59:00,73.2,71.4,30.16,SSW,194,0.0,0.0,94,0.00,,---,0.00,VWS V14.01,2013-08-21 02:59:00,
2013-08-20 23:04:00,73.2,71.7,30.16,SSW,194,0.0,0.0,95,0.00,,---,0.00,VWS V14.01,2013-08-21 03:04:00,
2013-08-20 23:09:00,73.1,71.6,30.16,SSW,194,0.0,0.0,95,0.00,,---,0.00,VWS V14.01,2013-08-21 03:09:00,
2013-08-20 23:14:00,73.1,71.6,30.16,SSW,194,0.0,0.0,95,0.00,,---,0.00,VWS V14.01,2013-08-21 03:14:00,
2013-08-20 23:19:00,73.0,71.5,30.16,SSW,194,0.0,0.0,95,0.00,,---,0.00,VWS V14.01,2013-08-21 03:19:00,
2013-08-20 23:24:00,73.0,71.5,30.16,SSW,194,0.0,0.0,95,0.00,,---,0.00,VWS V14.01,2013-08-21 03:24:00,
2013-08-20 23:29:00,73.0,71.5,30.16,SSW,194,0.0,0.0,95,0.00,,---,0.00,VWS V14.01,2013-08-21 03:29:00,
2013-08-20 23:34:00,72.9,71.4,30.16,SSW,194,0.0,0.0,95,0.00,,---,0.00,VWS V14.01,2013-08-21 03:34:00,
2013-08-20 23:39:00,72.8,71.3,30.16,SSW,194,0.0,0.0,95,0.00,,---,0.00,VWS V14.01,2013-08-21 03:39:00,
2013-08-20 23:44:00,72.8,71.3,30.16,SSW,194,0.0,0.0,95,0.00,,---,0.00,VWS V14.01,2013-08-21 03:44:00,
2013-08-20 23:49:00,72.8,71.3,30.16,SSW,194,0.0,0.0,95,0.00,,---,0.00,VWS V14.01,2013-08-21 03:49:00,
2013-08-20 23:54:00,72.8,71.3,30.16,SSW,194,0.0,0.0,95,0.00,,---,0.00,VWS V14.01,2013-08-21 03:54:00,
2013-08-20 23:59:00,72.8,71.3,30.16,SSW,194,0.0,0.0,95,0.00,,---,0.00,VWS V14.01,2013-08-21 03:59:00,